Location: Powder Track
(41.8531°N, 72.3584°W)
Time: 22:41:00
(UTC+00:00)

Vanguard 2 Rocket - Pass Details

Date: 10 August 2021
Orbit: 555 x 3324 km, 32.9° (Epoch: 18 September)

Event Time Altitude Azimuth Distance (km) Brightness Sun altitude
Rises 09:50:30 0° 244° (WSW) 4,523 - -1.2°
Exits shadow 09:51:01 - 243° (WSW) 4,338 9.7 -1.1°
Reaches altitude 10° 09:54:29 10° 235° (SW) 3,086 9.0 -0.5°
Maximum altitude 10:00:28 30° 177° (S) 1,452 7.8 0.5°
Drops below altitude 10° 10:04:36 10° 115° (ESE) 2,088 9.5 1.2°
Sets 10:06:47 0° 104° (ESE) 2,856 10.6 1.6°
